Multibeam Report for NBP1201


Ship Name: Nathaniel B. Palmer
Chief Scientist: McGillicuddy, Dennis
Woods Hole Oceanographic Institution
Source Organization: Marine Geoscience Data System (MGDS)
Start Date: 2011-12-24
End Date: 2012-02-11


View ISO Metadata

Visit the full NCEI Bathymetry Viewer


Multibeam Bathymetry

Cruise Details

Project:
Instrument: Kongsberg EM120

Data Quality

Number of Files: 960
Number of Records: 1084477
BATHYMETRY DATA Quantity Percentage
Number of Beams 207134916 100%
Number of Good Beams 192305900 92.84%
Number of Zero Beams 14829016 7.16%
Number of Flagged Beams 0 0%
AMPLITUDE DATA Quantity Percentage
Number of Beams 207134916 100%
Number of Good Beams 192305900 92.84%
Number of Zero Beams 14829016 7.16%
Number of Flagged Beams 0 0%
SIDESCAN DATA Quantity Percentage
Number of Pixels 1110503424 100%
Number of Good Pixels 654532573 58.94%
Number of Zero Pixels 0 0%
Number of Flagged Pixels 455970851 41.06%

Navigation Totals

Total Time: 927.249 hours
Total Track Length: 12197.7852 km
Average Speed: 13.155 km/hr (7.1031 knots)

Cruise Bounds

Northern Extent: -58.25589
Southern Extent: -77.868904
Western Extent: 163.98706
Eastern Extent: -73.97284

Limits

Minimum Sonar Depth 4.69 Maximum Sonar Depth 9.82
Minimum Altitude 0 Maximum Altitude 6693.7598
Minimum Depth 0 Maximum Depth 6989.3701
Minimum Amplitude 0 Maximum Amplitude 25
Minimum Sidescan 0 Maximum Sidescan 63

File Information

Full Resolution Bathymetry as collected (raw): 957

Files File Size Description
0001_20111227_171745_raw.all.mb56.gz 9.61MB Simrad multibeam vendor format
0002_20111227_181746_raw.all.mb56.gz 9.57MB Simrad multibeam vendor format
0003_20111227_191746_raw.all.mb56.gz 9.62MB Simrad multibeam vendor format
0004_20111227_201746_raw.all.mb56.gz 9.60MB Simrad multibeam vendor format
0005_20111227_211746_raw.all.mb56.gz 9.47MB Simrad multibeam vendor format
0006_20111227_221746_raw.all.mb56.gz 9.50MB Simrad multibeam vendor format
0007_20111227_231746_raw.all.mb56.gz 9.65MB Simrad multibeam vendor format
0008_20111228_001746_raw.all.mb56.gz 9.64MB Simrad multibeam vendor format
0009_20111228_011746_raw.all.mb56.gz 9.56MB Simrad multibeam vendor format
0010_20111228_021746_raw.all.mb56.gz 9.58MB Simrad multibeam vendor format
0011_20111228_031746_raw.all.mb56.gz 9.50MB Simrad multibeam vendor format
0012_20111228_041746_raw.all.mb56.gz 9.45MB Simrad multibeam vendor format
0013_20111228_051746_raw.all.mb56.gz 9.28MB Simrad multibeam vendor format
0014_20111228_061746_raw.all.mb56.gz 9.13MB Simrad multibeam vendor format
0015_20111228_071746_raw.all.mb56.gz 9.23MB Simrad multibeam vendor format
0016_20111228_081746_raw.all.mb56.gz 9.16MB Simrad multibeam vendor format
0017_20111228_091746_raw.all.mb56.gz 9.34MB Simrad multibeam vendor format
0018_20111228_101746_raw.all.mb56.gz 9.03MB Simrad multibeam vendor format
0019_20111228_111746_raw.all.mb56.gz 9.03MB Simrad multibeam vendor format
0020_20111228_121746_raw.all.mb56.gz 9.05MB Simrad multibeam vendor format
0021_20111228_131746_raw.all.mb56.gz 8.85MB Simrad multibeam vendor format
0022_20111228_141746_raw.all.mb56.gz 8.79MB Simrad multibeam vendor format
0023_20111228_151746_raw.all.mb56.gz 9.24MB Simrad multibeam vendor format
0024_20111228_161746_raw.all.mb56.gz 9.20MB Simrad multibeam vendor format
0025_20111228_171746_raw.all.mb56.gz 5.55MB Simrad multibeam vendor format
0026_20111229_014821_raw.all.mb56.gz 9.18MB Simrad multibeam vendor format
0027_20111229_024821_raw.all.mb56.gz 9.21MB Simrad multibeam vendor format
0028_20111229_034821_raw.all.mb56.gz 9.20MB Simrad multibeam vendor format
0029_20111229_044821_raw.all.mb56.gz 9.27MB Simrad multibeam vendor format
0030_20111229_054821_raw.all.mb56.gz 9.22MB Simrad multibeam vendor format
0031_20111229_064821_raw.all.mb56.gz 9.20MB Simrad multibeam vendor format
0032_20111229_074821_raw.all.mb56.gz 9.24MB Simrad multibeam vendor format
0033_20111229_084821_raw.all.mb56.gz 9.22MB Simrad multibeam vendor format
0034_20111229_094821_raw.all.mb56.gz 9.18MB Simrad multibeam vendor format
0035_20111229_104821_raw.all.mb56.gz 9.13MB Simrad multibeam vendor format
0036_20111229_114821_raw.all.mb56.gz 9.23MB Simrad multibeam vendor format
0037_20111229_124821_raw.all.mb56.gz 9.36MB Simrad multibeam vendor format
0038_20111229_134821_raw.all.mb56.gz 9.21MB Simrad multibeam vendor format
0039_20111229_144821_raw.all.mb56.gz 9.26MB Simrad multibeam vendor format
0040_20111229_154821_raw.all.mb56.gz 9.29MB Simrad multibeam vendor format
0041_20111229_164822_raw.all.mb56.gz 9.58MB Simrad multibeam vendor format
0042_20111229_174822_raw.all.mb56.gz 9.39MB Simrad multibeam vendor format
0043_20111229_184822_raw.all.mb56.gz 9.30MB Simrad multibeam vendor format
0044_20111229_194822_raw.all.mb56.gz 9.27MB Simrad multibeam vendor format
0045_20111229_204823_raw.all.mb56.gz 9.19MB Simrad multibeam vendor format
0046_20111229_214823_raw.all.mb56.gz 9.06MB Simrad multibeam vendor format
0047_20111229_224823_raw.all.mb56.gz 9.20MB Simrad multibeam vendor format
0048_20111229_234823_raw.all.mb56.gz 9.24MB Simrad multibeam vendor format
0049_20111230_004823_raw.all.mb56.gz 9.04MB Simrad multibeam vendor format
0050_20111230_014823_raw.all.mb56.gz 8.74MB Simrad multibeam vendor format
0051_20111230_024823_raw.all.mb56.gz 8.68MB Simrad multibeam vendor format
0052_20111230_034823_raw.all.mb56.gz 8.59MB Simrad multibeam vendor format
0053_20111230_044823_raw.all.mb56.gz 8.51MB Simrad multibeam vendor format
0054_20111230_054823_raw.all.mb56.gz 8.49MB Simrad multibeam vendor format
0055_20111230_064823_raw.all.mb56.gz 8.68MB Simrad multibeam vendor format
0056_20111230_074823_raw.all.mb56.gz 8.74MB Simrad multibeam vendor format
0057_20111230_084822_raw.all.mb56.gz 8.69MB Simrad multibeam vendor format
0058_20111230_094822_raw.all.mb56.gz 8.67MB Simrad multibeam vendor format
0059_20111230_104822_raw.all.mb56.gz 8.69MB Simrad multibeam vendor format
0060_20111230_114822_raw.all.mb56.gz 8.59MB Simrad multibeam vendor format
0061_20111230_124822_raw.all.mb56.gz 8.63MB Simrad multibeam vendor format
0062_20111230_134822_raw.all.mb56.gz 8.82MB Simrad multibeam vendor format
0063_20111230_144822_raw.all.mb56.gz 8.63MB Simrad multibeam vendor format
0064_20111230_154822_raw.all.mb56.gz 8.62MB Simrad multibeam vendor format
0065_20111230_164822_raw.all.mb56.gz 8.58MB Simrad multibeam vendor format
0066_20111230_174822_raw.all.mb56.gz 8.34MB Simrad multibeam vendor format
0067_20111230_184822_raw.all.mb56.gz 8.46MB Simrad multibeam vendor format
0068_20111230_194822_raw.all.mb56.gz 8.42MB Simrad multibeam vendor format
0069_20111230_204822_raw.all.mb56.gz 8.49MB Simrad multibeam vendor format
0070_20111230_214822_raw.all.mb56.gz 8.44MB Simrad multibeam vendor format
0071_20111230_224822_raw.all.mb56.gz 8.43MB Simrad multibeam vendor format
0072_20111230_234822_raw.all.mb56.gz 8.46MB Simrad multibeam vendor format
0073_20111231_004822_raw.all.mb56.gz 8.38MB Simrad multibeam vendor format
0074_20111231_014822_raw.all.mb56.gz 8.34MB Simrad multibeam vendor format
0075_20111231_024822_raw.all.mb56.gz 8.36MB Simrad multibeam vendor format
0076_20111231_034822_raw.all.mb56.gz 8.40MB Simrad multibeam vendor format
0077_20111231_044822_raw.all.mb56.gz 8.56MB Simrad multibeam vendor format
0078_20111231_054822_raw.all.mb56.gz 8.31MB Simrad multibeam vendor format
0079_20111231_064822_raw.all.mb56.gz 8.37MB Simrad multibeam vendor format
0080_20111231_074822_raw.all.mb56.gz 8.35MB Simrad multibeam vendor format
0081_20111231_084822_raw.all.mb56.gz 8.31MB Simrad multibeam vendor format
0082_20111231_094822_raw.all.mb56.gz 8.19MB Simrad multibeam vendor format
0083_20111231_104822_raw.all.mb56.gz 8.33MB Simrad multibeam vendor format
0084_20111231_114823_raw.all.mb56.gz 8.35MB Simrad multibeam vendor format
0085_20111231_124823_raw.all.mb56.gz 8.39MB Simrad multibeam vendor format
0086_20111231_134823_raw.all.mb56.gz 8.33MB Simrad multibeam vendor format
0087_20111231_144822_raw.all.mb56.gz 8.46MB Simrad multibeam vendor format
0088_20111231_154823_raw.all.mb56.gz 8.41MB Simrad multibeam vendor format
0089_20111231_164822_raw.all.mb56.gz 8.34MB Simrad multibeam vendor format
0090_20111231_174822_raw.all.mb56.gz 8.26MB Simrad multibeam vendor format
0091_20111231_184822_raw.all.mb56.gz 8.36MB Simrad multibeam vendor format
0092_20111231_194822_raw.all.mb56.gz 3.88MB Simrad multibeam vendor format
0093_20111231_224731_raw.all.mb56.gz 8.20MB Simrad multibeam vendor format
0094_20111231_234731_raw.all.mb56.gz 8.22MB Simrad multibeam vendor format
0095_20120101_004731_raw.all.mb56.gz 8.33MB Simrad multibeam vendor format
0096_20120101_014731_raw.all.mb56.gz 8.40MB Simrad multibeam vendor format
0097_20120101_024731_raw.all.mb56.gz 8.39MB Simrad multibeam vendor format
0098_20120101_034731_raw.all.mb56.gz 8.35MB Simrad multibeam vendor format
0099_20120101_044731_raw.all.mb56.gz 8.49MB Simrad multibeam vendor format
0100_20120101_054731_raw.all.mb56.gz 8.49MB Simrad multibeam vendor format
0101_20120101_064731_raw.all.mb56.gz 8.45MB Simrad multibeam vendor format
0102_20120101_074731_raw.all.mb56.gz 8.46MB Simrad multibeam vendor format
0103_20120101_084731_raw.all.mb56.gz 8.53MB Simrad multibeam vendor format
0104_20120101_094731_raw.all.mb56.gz 8.61MB Simrad multibeam vendor format
0105_20120101_104731_raw.all.mb56.gz 8.68MB Simrad multibeam vendor format
0106_20120101_114731_raw.all.mb56.gz 8.77MB Simrad multibeam vendor format
0107_20120101_124731_raw.all.mb56.gz 8.72MB Simrad multibeam vendor format
0108_20120101_134731_raw.all.mb56.gz 8.78MB Simrad multibeam vendor format
0109_20120101_144731_raw.all.mb56.gz 8.86MB Simrad multibeam vendor format
0110_20120101_154731_raw.all.mb56.gz 8.77MB Simrad multibeam vendor format
0111_20120101_164731_raw.all.mb56.gz 8.80MB Simrad multibeam vendor format
0112_20120101_174731_raw.all.mb56.gz 8.45MB Simrad multibeam vendor format
0113_20120101_184731_raw.all.mb56.gz 8.43MB Simrad multibeam vendor format
0114_20120101_194731_raw.all.mb56.gz 8.38MB Simrad multibeam vendor format
0115_20120101_204731_raw.all.mb56.gz 8.44MB Simrad multibeam vendor format
0116_20120101_214731_raw.all.mb56.gz 8.35MB Simrad multibeam vendor format
0117_20120101_224731_raw.all.mb56.gz 8.34MB Simrad multibeam vendor format
0118_20120101_234731_raw.all.mb56.gz 8.39MB Simrad multibeam vendor format
0119_20120102_004731_raw.all.mb56.gz 8.39MB Simrad multibeam vendor format
0120_20120102_014731_raw.all.mb56.gz 8.46MB Simrad multibeam vendor format
0121_20120102_024731_raw.all.mb56.gz 8.43MB Simrad multibeam vendor format
0122_20120102_034731_raw.all.mb56.gz 8.45MB Simrad multibeam vendor format
0123_20120102_044732_raw.all.mb56.gz 8.49MB Simrad multibeam vendor format
0124_20120102_054732_raw.all.mb56.gz 8.52MB Simrad multibeam vendor format
0125_20120102_064732_raw.all.mb56.gz 8.54MB Simrad multibeam vendor format
0126_20120102_074732_raw.all.mb56.gz 8.41MB Simrad multibeam vendor format
0127_20120102_084732_raw.all.mb56.gz 8.51MB Simrad multibeam vendor format
0128_20120102_094732_raw.all.mb56.gz 8.50MB Simrad multibeam vendor format
0129_20120102_104732_raw.all.mb56.gz 8.54MB Simrad multibeam vendor format
0130_20120102_114732_raw.all.mb56.gz 8.23MB Simrad multibeam vendor format
0131_20120102_124732_raw.all.mb56.gz 8.41MB Simrad multibeam vendor format
0132_20120102_134732_raw.all.mb56.gz 8.49MB Simrad multibeam vendor format
0133_20120102_144732_raw.all.mb56.gz 8.52MB Simrad multibeam vendor format
0134_20120102_154732_raw.all.mb56.gz 8.55MB Simrad multibeam vendor format
0135_20120102_164732_raw.all.mb56.gz 8.56MB Simrad multibeam vendor format
0136_20120102_174732_raw.all.mb56.gz 8.65MB Simrad multibeam vendor format
0137_20120102_184732_raw.all.mb56.gz 8.55MB Simrad multibeam vendor format
0138_20120102_194732_raw.all.mb56.gz 8.56MB Simrad multibeam vendor format
0139_20120102_204732_raw.all.mb56.gz 8.53MB Simrad multibeam vendor format
0140_20120102_214732_raw.all.mb56.gz 8.54MB Simrad multibeam vendor format
0141_20120102_224732_raw.all.mb56.gz 8.62MB Simrad multibeam vendor format
0142_20120102_234732_raw.all.mb56.gz 8.63MB Simrad multibeam vendor format
0143_20120103_004732_raw.all.mb56.gz 8.61MB Simrad multibeam vendor format
0144_20120103_014732_raw.all.mb56.gz 8.58MB Simrad multibeam vendor format
0145_20120103_024732_raw.all.mb56.gz 8.63MB Simrad multibeam vendor format
0146_20120103_034732_raw.all.mb56.gz 8.61MB Simrad multibeam vendor format
0147_20120103_044732_raw.all.mb56.gz 8.62MB Simrad multibeam vendor format
0148_20120103_054732_raw.all.mb56.gz 8.51MB Simrad multibeam vendor format
0149_20120103_064732_raw.all.mb56.gz 8.61MB Simrad multibeam vendor format
0150_20120103_074732_raw.all.mb56.gz 8.51MB Simrad multibeam vendor format
0151_20120103_084732_raw.all.mb56.gz 8.37MB Simrad multibeam vendor format
0152_20120103_094732_raw.all.mb56.gz 8.03MB Simrad multibeam vendor format
0153_20120103_104732_raw.all.mb56.gz 8.09MB Simrad multibeam vendor format
0154_20120103_114732_raw.all.mb56.gz 8.02MB Simrad multibeam vendor format
0155_20120103_124732_raw.all.mb56.gz 8.11MB Simrad multibeam vendor format
0156_20120103_134732_raw.all.mb56.gz 8.07MB Simrad multibeam vendor format
0157_20120103_144732_raw.all.mb56.gz 8.18MB Simrad multibeam vendor format
0158_20120103_154732_raw.all.mb56.gz 8.32MB Simrad multibeam vendor format
0159_20120103_164732_raw.all.mb56.gz 8.47MB Simrad multibeam vendor format
0160_20120103_174732_raw.all.mb56.gz 8.44MB Simrad multibeam vendor format
0161_20120103_184732_raw.all.mb56.gz 9.23MB Simrad multibeam vendor format
0162_20120103_194732_raw.all.mb56.gz 9.38MB Simrad multibeam vendor format
0163_20120103_204732_raw.all.mb56.gz 9.36MB Simrad multibeam vendor format
0164_20120103_214732_raw.all.mb56.gz 9.70MB Simrad multibeam vendor format
0165_20120103_224732_raw.all.mb56.gz 9.74MB Simrad multibeam vendor format
0166_20120103_234732_raw.all.mb56.gz 9.75MB Simrad multibeam vendor format
0167_20120104_004732_raw.all.mb56.gz 9.83MB Simrad multibeam vendor format
0168_20120104_014732_raw.all.mb56.gz 9.78MB Simrad multibeam vendor format
0169_20120104_024732_raw.all.mb56.gz 9.74MB Simrad multibeam vendor format
0170_20120104_034732_raw.all.mb56.gz 9.74MB Simrad multibeam vendor format
0171_20120104_044732_raw.all.mb56.gz 9.72MB Simrad multibeam vendor format
0172_20120104_054732_raw.all.mb56.gz 9.70MB Simrad multibeam vendor format
0173_20120104_064732_raw.all.mb56.gz 9.68MB Simrad multibeam vendor format
0174_20120104_074732_raw.all.mb56.gz 9.63MB Simrad multibeam vendor format
0175_20120104_084732_raw.all.mb56.gz 9.65MB Simrad multibeam vendor format
0176_20120104_094732_raw.all.mb56.gz 9.65MB Simrad multibeam vendor format
0177_20120104_104732_raw.all.mb56.gz 9.66MB Simrad multibeam vendor format
0178_20120104_114732_raw.all.mb56.gz 9.65MB Simrad multibeam vendor format
0179_20120104_124732_raw.all.mb56.gz 9.60MB Simrad multibeam vendor format
0180_20120104_134732_raw.all.mb56.gz 9.64MB Simrad multibeam vendor format
0181_20120104_144732_raw.all.mb56.gz 9.63MB Simrad multibeam vendor format
0182_20120104_154732_raw.all.mb56.gz 9.56MB Simrad multibeam vendor format
0183_20120104_164732_raw.all.mb56.gz 9.50MB Simrad multibeam vendor format
0184_20120104_174732_raw.all.mb56.gz 9.51MB Simrad multibeam vendor format
0185_20120104_184732_raw.all.mb56.gz 9.46MB Simrad multibeam vendor format
0186_20120104_194732_raw.all.mb56.gz 9.30MB Simrad multibeam vendor format
0187_20120104_204732_raw.all.mb56.gz 8.99MB Simrad multibeam vendor format
0188_20120104_214732_raw.all.mb56.gz 8.44MB Simrad multibeam vendor format
0189_20120104_224732_raw.all.mb56.gz 8.29MB Simrad multibeam vendor format
0190_20120104_234732_raw.all.mb56.gz 8.51MB Simrad multibeam vendor format
0191_20120105_004732_raw.all.mb56.gz 8.82MB Simrad multibeam vendor format
0192_20120105_014732_raw.all.mb56.gz 9.06MB Simrad multibeam vendor format
0193_20120105_024732_raw.all.mb56.gz 0.68MB Simrad multibeam vendor format
0193_20120105_080621_raw.all.mb56.gz 18.34MB Simrad multibeam vendor format
0196_20120105_101352_raw.all.mb56.gz 9.40MB Simrad multibeam vendor format
0197_20120105_111353_raw.all.mb56.gz 9.25MB Simrad multibeam vendor format
0198_20120105_121352_raw.all.mb56.gz 9.46MB Simrad multibeam vendor format
0199_20120105_131352_raw.all.mb56.gz 9.67MB Simrad multibeam vendor format
0200_20120105_141352_raw.all.mb56.gz 9.40MB Simrad multibeam vendor format
0201_20120105_151352_raw.all.mb56.gz 9.42MB Simrad multibeam vendor format
0202_20120105_161352_raw.all.mb56.gz 9.52MB Simrad multibeam vendor format
0203_20120105_171352_raw.all.mb56.gz 9.45MB Simrad multibeam vendor format
0204_20120105_181352_raw.all.mb56.gz 9.69MB Simrad multibeam vendor format
0205_20120105_191352_raw.all.mb56.gz 9.55MB Simrad multibeam vendor format
0206_20120105_201352_raw.all.mb56.gz 9.75MB Simrad multibeam vendor format
0207_20120105_211352_raw.all.mb56.gz 9.72MB Simrad multibeam vendor format
0208_20120105_221352_raw.all.mb56.gz 9.73MB Simrad multibeam vendor format
0209_20120105_231352_raw.all.mb56.gz 8.00MB Simrad multibeam vendor format
0210_20120106_001939_raw.all.mb56.gz 9.76MB Simrad multibeam vendor format
0211_20120106_011939_raw.all.mb56.gz 9.76MB Simrad multibeam vendor format
0212_20120106_021939_raw.all.mb56.gz 9.79MB Simrad multibeam vendor format
0213_20120106_031939_raw.all.mb56.gz 9.83MB Simrad multibeam vendor format
0214_20120106_041939_raw.all.mb56.gz 9.78MB Simrad multibeam vendor format
0215_20120106_051939_raw.all.mb56.gz 9.76MB Simrad multibeam vendor format
0216_20120106_061939_raw.all.mb56.gz 9.65MB Simrad multibeam vendor format
0217_20120106_071939_raw.all.mb56.gz 9.67MB Simrad multibeam vendor format
0218_20120106_081939_raw.all.mb56.gz 9.66MB Simrad multibeam vendor format
0219_20120106_091939_raw.all.mb56.gz 9.65MB Simrad multibeam vendor format
0220_20120106_101939_raw.all.mb56.gz 9.69MB Simrad multibeam vendor format
0221_20120106_111939_raw.all.mb56.gz 9.69MB Simrad multibeam vendor format
0222_20120106_121939_raw.all.mb56.gz 9.69MB Simrad multibeam vendor format
0223_20120106_131939_raw.all.mb56.gz 9.61MB Simrad multibeam vendor format
0224_20120106_141939_raw.all.mb56.gz 9.67MB Simrad multibeam vendor format
0225_20120106_151939_raw.all.mb56.gz 9.60MB Simrad multibeam vendor format
0226_20120106_161939_raw.all.mb56.gz 9.59MB Simrad multibeam vendor format
0227_20120106_171939_raw.all.mb56.gz 9.41MB Simrad multibeam vendor format
0228_20120106_181939_raw.all.mb56.gz 9.59MB Simrad multibeam vendor format
0229_20120106_191939_raw.all.mb56.gz 9.74MB Simrad multibeam vendor format
0230_20120106_201939_raw.all.mb56.gz 9.80MB Simrad multibeam vendor format
0231_20120106_211938_raw.all.mb56.gz 9.80MB Simrad multibeam vendor format
0232_20120106_221938_raw.all.mb56.gz 9.89MB Simrad multibeam vendor format
0233_20120106_231939_raw.all.mb56.gz 8.62MB Simrad multibeam vendor format
0234_20120107_001939_raw.all.mb56.gz 8.62MB Simrad multibeam vendor format
0235_20120107_011939_raw.all.mb56.gz 8.66MB Simrad multibeam vendor format
0236_20120107_021938_raw.all.mb56.gz 0.58MB Simrad multibeam vendor format
0237_20120107_022333_raw.all.mb56.gz 45.8KB Simrad multibeam vendor format
0238_20120107_022349_raw.all.mb56.gz 8.70MB Simrad multibeam vendor format
0239_20120107_032349_raw.all.mb56.gz 8.79MB Simrad multibeam vendor format
0240_20120107_042349_raw.all.mb56.gz 8.80MB Simrad multibeam vendor format
0241_20120107_052349_raw.all.mb56.gz 8.72MB Simrad multibeam vendor format
0242_20120107_062349_raw.all.mb56.gz 8.53MB Simrad multibeam vendor format
0243_20120107_072349_raw.all.mb56.gz 8.73MB Simrad multibeam vendor format
0244_20120107_082349_raw.all.mb56.gz 8.75MB Simrad multibeam vendor format
0245_20120107_092349_raw.all.mb56.gz 8.73MB Simrad multibeam vendor format
0246_20120107_102349_raw.all.mb56.gz 8.70MB Simrad multibeam vendor format
0247_20120107_112349_raw.all.mb56.gz 8.60MB Simrad multibeam vendor format
0248_20120107_122349_raw.all.mb56.gz 8.63MB Simrad multibeam vendor format
0249_20120107_132349_raw.all.mb56.gz 8.37MB Simrad multibeam vendor format
0250_20120107_142349_raw.all.mb56.gz 8.75MB Simrad multibeam vendor format
0251_20120107_152349_raw.all.mb56.gz 8.83MB Simrad multibeam vendor format
0252_20120107_162349_raw.all.mb56.gz 8.81MB Simrad multibeam vendor format
0253_20120107_172349_raw.all.mb56.gz 8.73MB Simrad multibeam vendor format
0254_20120107_182349_raw.all.mb56.gz 8.88MB Simrad multibeam vendor format
0255_20120107_192349_raw.all.mb56.gz 8.87MB Simrad multibeam vendor format
0256_20120107_202349_raw.all.mb56.gz 8.86MB Simrad multibeam vendor format
0257_20120107_212349_raw.all.mb56.gz 8.81MB Simrad multibeam vendor format
0258_20120107_222349_raw.all.mb56.gz 8.79MB Simrad multibeam vendor format
0259_20120107_232349_raw.all.mb56.gz 8.72MB Simrad multibeam vendor format
0260_20120108_002349_raw.all.mb56.gz 8.82MB Simrad multibeam vendor format
0261_20120108_012349_raw.all.mb56.gz 8.85MB Simrad multibeam vendor format
0262_20120108_022349_raw.all.mb56.gz 8.83MB Simrad multibeam vendor format
0263_20120108_032349_raw.all.mb56.gz 8.48MB Simrad multibeam vendor format
0264_20120108_042349_raw.all.mb56.gz 7.77MB Simrad multibeam vendor format
0265_20120108_052349_raw.all.mb56.gz 7.79MB Simrad multibeam vendor format
0266_20120108_062349_raw.all.mb56.gz 9.04MB Simrad multibeam vendor format
0267_20120108_072349_raw.all.mb56.gz 8.83MB Simrad multibeam vendor format
0268_20120108_082349_raw.all.mb56.gz 9.05MB Simrad multibeam vendor format
0269_20120108_092349_raw.all.mb56.gz 9.12MB Simrad multibeam vendor format
0270_20120108_102349_raw.all.mb56.gz 9.22MB Simrad multibeam vendor format
0271_20120108_112349_raw.all.mb56.gz 9.24MB Simrad multibeam vendor format
0272_20120108_122349_raw.all.mb56.gz 9.62MB Simrad multibeam vendor format
0273_20120108_132349_raw.all.mb56.gz 9.80MB Simrad multibeam vendor format
0274_20120108_142349_raw.all.mb56.gz 10.09MB Simrad multibeam vendor format
0275_20120108_152349_raw.all.mb56.gz 10.33MB Simrad multibeam vendor format
0276_20120108_162349_raw.all.mb56.gz 10.06MB Simrad multibeam vendor format
0277_20120108_172349_raw.all.mb56.gz 10.07MB Simrad multibeam vendor format
0278_20120108_182349_raw.all.mb56.gz 10.16MB Simrad multibeam vendor format
0279_20120108_192349_raw.all.mb56.gz 10.13MB Simrad multibeam vendor format
0280_20120108_202349_raw.all.mb56.gz 9.93MB Simrad multibeam vendor format
0281_20120108_212349_raw.all.mb56.gz 9.75MB Simrad multibeam vendor format
0282_20120108_222214_raw.all.mb56.gz 10.16MB Simrad multibeam vendor format
0283_20120108_232213_raw.all.mb56.gz 10.70MB Simrad multibeam vendor format
0284_20120109_002213_raw.all.mb56.gz 10.01MB Simrad multibeam vendor format
0285_20120109_012213_raw.all.mb56.gz 10.45MB Simrad multibeam vendor format
0286_20120109_022213_raw.all.mb56.gz 10.74MB Simrad multibeam vendor format
0287_20120109_032213_raw.all.mb56.gz 11.48MB Simrad multibeam vendor format
0288_20120109_042213_raw.all.mb56.gz 12.78MB Simrad multibeam vendor format
0289_20120109_052213_raw.all.mb56.gz 17.71MB Simrad multibeam vendor format
0290_20120109_062213_raw.all.mb56.gz 18.35MB Simrad multibeam vendor format
0291_20120109_072213_raw.all.mb56.gz 18.10MB Simrad multibeam vendor format
0292_20120109_082213_raw.all.mb56.gz 17.27MB Simrad multibeam vendor format
0293_20120109_092213_raw.all.mb56.gz 8.85MB Simrad multibeam vendor format
0294_20120109_095345_raw.all.mb56.gz 0.58MB Simrad multibeam vendor format
0295_20120109_095543_raw.all.mb56.gz 69.5KB Simrad multibeam vendor format
0296_20120109_095556_raw.all.mb56.gz 75.5KB Simrad multibeam vendor format
0297_20120109_095610_raw.all.mb56.gz 17.19MB Simrad multibeam vendor format
0298_20120109_105610_raw.all.mb56.gz 17.33MB Simrad multibeam vendor format
0299_20120109_115610_raw.all.mb56.gz 17.24MB Simrad multibeam vendor format
0300_20120109_125610_raw.all.mb56.gz 17.94MB Simrad multibeam vendor format
0301_20120109_135610_raw.all.mb56.gz 18.23MB Simrad multibeam vendor format
0302_20120109_145610_raw.all.mb56.gz 18.21MB Simrad multibeam vendor format
0303_20120109_155610_raw.all.mb56.gz 17.56MB Simrad multibeam vendor format
0304_20120109_165610_raw.all.mb56.gz 17.25MB Simrad multibeam vendor format
0305_20120109_175610_raw.all.mb56.gz 17.93MB Simrad multibeam vendor format
0306_20120109_185610_raw.all.mb56.gz 18.73MB Simrad multibeam vendor format
0307_20120109_195610_raw.all.mb56.gz 18.81MB Simrad multibeam vendor format
0308_20120109_205610_raw.all.mb56.gz 18.00MB Simrad multibeam vendor format
0309_20120109_215610_raw.all.mb56.gz 17.90MB Simrad multibeam vendor format
0310_20120109_225610_raw.all.mb56.gz 18.19MB Simrad multibeam vendor format
0311_20120109_235610_raw.all.mb56.gz 18.15MB Simrad multibeam vendor format
0312_20120110_005610_raw.all.mb56.gz 17.91MB Simrad multibeam vendor format
0313_20120110_015610_raw.all.mb56.gz 17.63MB Simrad multibeam vendor format
0314_20120110_025610_raw.all.mb56.gz 17.99MB Simrad multibeam vendor format
0315_20120110_035610_raw.all.mb56.gz 17.91MB Simrad multibeam vendor format
0316_20120110_045610_raw.all.mb56.gz 18.29MB Simrad multibeam vendor format
0317_20120110_055610_raw.all.mb56.gz 18.28MB Simrad multibeam vendor format
0318_20120110_065610_raw.all.mb56.gz 18.13MB Simrad multibeam vendor format
0319_20120110_075610_raw.all.mb56.gz 18.21MB Simrad multibeam vendor format
0320_20120110_085610_raw.all.mb56.gz 18.13MB Simrad multibeam vendor format
0321_20120110_095610_raw.all.mb56.gz 17.90MB Simrad multibeam vendor format
0322_20120110_105610_raw.all.mb56.gz 18.18MB Simrad multibeam vendor format
0323_20120110_115610_raw.all.mb56.gz 18.32MB Simrad multibeam vendor format
0324_20120110_125610_raw.all.mb56.gz 18.67MB Simrad multibeam vendor format
0325_20120110_135610_raw.all.mb56.gz 18.51MB Simrad multibeam vendor format
0326_20120110_145610_raw.all.mb56.gz 18.30MB Simrad multibeam vendor format
0327_20120110_155610_raw.all.mb56.gz 18.18MB Simrad multibeam vendor format
0328_20120110_165610_raw.all.mb56.gz 18.63MB Simrad multibeam vendor format
0329_20120110_175610_raw.all.mb56.gz 18.20MB Simrad multibeam vendor format
0330_20120110_185610_raw.all.mb56.gz 17.86MB Simrad multibeam vendor format
0331_20120110_195610_raw.all.mb56.gz 18.07MB Simrad multibeam vendor format
0332_20120110_205610_raw.all.mb56.gz 18.63MB Simrad multibeam vendor format
0333_20120110_215610_raw.all.mb56.gz 19.76MB Simrad multibeam vendor format
0334_20120110_225610_raw.all.mb56.gz 19.61MB Simrad multibeam vendor format
0335_20120110_235610_raw.all.mb56.gz 20.79MB Simrad multibeam vendor format
0336_20120111_005610_raw.all.mb56.gz 21.59MB Simrad multibeam vendor format
0337_20120111_015610_raw.all.mb56.gz 23.53MB Simrad multibeam vendor format
0338_20120111_025610_raw.all.mb56.gz 22.22MB Simrad multibeam vendor format
0339_20120111_035610_raw.all.mb56.gz 22.33MB Simrad multibeam vendor format
0340_20120111_045610_raw.all.mb56.gz 21.88MB Simrad multibeam vendor format
0341_20120111_055610_raw.all.mb56.gz 21.06MB Simrad multibeam vendor format
0342_20120111_065610_raw.all.mb56.gz 20.90MB Simrad multibeam vendor format
0343_20120111_075610_raw.all.mb56.gz 22.42MB Simrad multibeam vendor format
0344_20120111_085610_raw.all.mb56.gz 23.44MB Simrad multibeam vendor format
0345_20120111_095610_raw.all.mb56.gz 23.32MB Simrad multibeam vendor format
0346_20120111_105610_raw.all.mb56.gz 22.74MB Simrad multibeam vendor format
0347_20120111_130204_raw.all.mb56.gz 20.81MB Simrad multibeam vendor format
0348_20120111_140204_raw.all.mb56.gz 20.18MB Simrad multibeam vendor format
0349_20120111_150204_raw.all.mb56.gz 20.23MB Simrad multibeam vendor format
0350_20120111_160204_raw.all.mb56.gz 20.26MB Simrad multibeam vendor format
0351_20120111_170204_raw.all.mb56.gz 20.29MB Simrad multibeam vendor format
0352_20120111_180204_raw.all.mb56.gz 18.78MB Simrad multibeam vendor format
0353_20120111_190204_raw.all.mb56.gz 12.29MB Simrad multibeam vendor format
0354_20120111_200204_raw.all.mb56.gz 3.64MB Simrad multibeam vendor format
0354_20120111_205557_raw.all.mb56.gz 18.32MB Simrad multibeam vendor format
0355_20120111_215557_raw.all.mb56.gz 18.39MB Simrad multibeam vendor format
0356_20120111_225557_raw.all.mb56.gz 18.64MB Simrad multibeam vendor format
0357_20120111_235557_raw.all.mb56.gz 17.97MB Simrad multibeam vendor format
0358_20120112_005557_raw.all.mb56.gz 17.19MB Simrad multibeam vendor format
0359_20120112_015557_raw.all.mb56.gz 17.58MB Simrad multibeam vendor format
0360_20120112_025557_raw.all.mb56.gz 17.25MB Simrad multibeam vendor format
0361_20120112_035557_raw.all.mb56.gz 17.27MB Simrad multibeam vendor format
0362_20120112_045557_raw.all.mb56.gz 14.43MB Simrad multibeam vendor format
0363_20120112_055557_raw.all.mb56.gz 13.64MB Simrad multibeam vendor format
0364_20120112_065557_raw.all.mb56.gz 14.07MB Simrad multibeam vendor format
0365_20120112_075600_raw.all.mb56.gz 13.92MB Simrad multibeam vendor format
0366_20120112_085600_raw.all.mb56.gz 15.46MB Simrad multibeam vendor format
0367_20120112_095600_raw.all.mb56.gz 14.27MB Simrad multibeam vendor format
0368_20120112_105601_raw.all.mb56.gz 13.29MB Simrad multibeam vendor format
0369_20120112_115601_raw.all.mb56.gz 13.82MB Simrad multibeam vendor format
0370_20120112_125601_raw.all.mb56.gz 14.06MB Simrad multibeam vendor format
0371_20120112_135601_raw.all.mb56.gz 14.20MB Simrad multibeam vendor format
0372_20120112_145601_raw.all.mb56.gz 8.87MB Simrad multibeam vendor format
0373_20120112_155601_raw.all.mb56.gz 1.99MB Simrad multibeam vendor format
0374_20120112_210332_raw.all.mb56.gz 13.90MB Simrad multibeam vendor format
0375_20120112_220333_raw.all.mb56.gz 14.23MB Simrad multibeam vendor format
0376_20120112_230333_raw.all.mb56.gz 14.42MB Simrad multibeam vendor format
0377_20120113_000333_raw.all.mb56.gz 13.68MB Simrad multibeam vendor format
0378_20120113_010333_raw.all.mb56.gz 14.48MB Simrad multibeam vendor format
0379_20120113_020333_raw.all.mb56.gz 14.53MB Simrad multibeam vendor format
0380_20120113_030333_raw.all.mb56.gz 13.99MB Simrad multibeam vendor format
0381_20120113_040333_raw.all.mb56.gz 13.69MB Simrad multibeam vendor format
0382_20120113_050333_raw.all.mb56.gz 13.05MB Simrad multibeam vendor format
0383_20120113_060333_raw.all.mb56.gz 14.57MB Simrad multibeam vendor format
0384_20120113_070333_raw.all.mb56.gz 14.76MB Simrad multibeam vendor format
0385_20120113_080333_raw.all.mb56.gz 14.26MB Simrad multibeam vendor format
0386_20120113_090333_raw.all.mb56.gz 14.25MB Simrad multibeam vendor format
0387_20120113_100333_raw.all.mb56.gz 14.33MB Simrad multibeam vendor format
0388_20120113_110333_raw.all.mb56.gz 14.69MB Simrad multibeam vendor format
0389_20120113_120333_raw.all.mb56.gz 16.23MB Simrad multibeam vendor format
0390_20120113_130333_raw.all.mb56.gz 16.76MB Simrad multibeam vendor format
0391_20120113_140333_raw.all.mb56.gz 16.36MB Simrad multibeam vendor format
0392_20120113_150333_raw.all.mb56.gz 16.70MB Simrad multibeam vendor format
0393_20120113_160333_raw.all.mb56.gz 16.88MB Simrad multibeam vendor format
0394_20120113_170333_raw.all.mb56.gz 16.97MB Simrad multibeam vendor format
0395_20120113_180333_raw.all.mb56.gz 17.03MB Simrad multibeam vendor format
0396_20120113_190333_raw.all.mb56.gz 3.84MB Simrad multibeam vendor format
0397_20120113_191725_raw.all.mb56.gz 139.5KB Simrad multibeam vendor format
0398_20120113_192959_raw.all.mb56.gz 2.53MB Simrad multibeam vendor format
0399_20120113_195313_raw.all.mb56.gz 16.82MB Simrad multibeam vendor format
0400_20120113_205313_raw.all.mb56.gz 17.06MB Simrad multibeam vendor format
0401_20120113_215313_raw.all.mb56.gz 17.41MB Simrad multibeam vendor format
0402_20120113_225313_raw.all.mb56.gz 17.50MB Simrad multibeam vendor format
0403_20120113_235313_raw.all.mb56.gz 18.16MB Simrad multibeam vendor format
0404_20120114_005313_raw.all.mb56.gz 19.31MB Simrad multibeam vendor format
0405_20120114_015313_raw.all.mb56.gz 19.69MB Simrad multibeam vendor format
0406_20120114_025313_raw.all.mb56.gz 19.54MB Simrad multibeam vendor format
0407_20120114_035313_raw.all.mb56.gz 19.00MB Simrad multibeam vendor format
0408_20120114_045313_raw.all.mb56.gz 18.22MB Simrad multibeam vendor format
0409_20120114_055313_raw.all.mb56.gz 17.68MB Simrad multibeam vendor format
0410_20120114_065313_raw.all.mb56.gz 17.22MB Simrad multibeam vendor format
0411_20120114_075313_raw.all.mb56.gz 17.13MB Simrad multibeam vendor format
0412_20120114_085313_raw.all.mb56.gz 16.89MB Simrad multibeam vendor format
0413_20120114_095313_raw.all.mb56.gz 14.91MB Simrad multibeam vendor format
0414_20120114_105313_raw.all.mb56.gz 15.77MB Simrad multibeam vendor format
0415_20120114_115313_raw.all.mb56.gz 15.68MB Simrad multibeam vendor format
0416_20120114_125313_raw.all.mb56.gz 16.86MB Simrad multibeam vendor format
0417_20120114_135313_raw.all.mb56.gz 16.28MB Simrad multibeam vendor format
0418_20120114_145313_raw.all.mb56.gz 16.72MB Simrad multibeam vendor format
0419_20120114_155313_raw.all.mb56.gz 16.94MB Simrad multibeam vendor format
0420_20120114_165313_raw.all.mb56.gz 17.13MB Simrad multibeam vendor format
0421_20120114_175313_raw.all.mb56.gz 17.17MB Simrad multibeam vendor format
0422_20120114_185313_raw.all.mb56.gz 17.24MB Simrad multibeam vendor format
0423_20120114_195313_raw.all.mb56.gz 17.40MB Simrad multibeam vendor format
0424_20120114_205313_raw.all.mb56.gz 17.21MB Simrad multibeam vendor format
0425_20120114_215313_raw.all.mb56.gz 16.80MB Simrad multibeam vendor format
0426_20120114_225313_raw.all.mb56.gz 14.76MB Simrad multibeam vendor format
0427_20120114_235313_raw.all.mb56.gz 15.15MB Simrad multibeam vendor format
0428_20120115_005313_raw.all.mb56.gz 16.93MB Simrad multibeam vendor format
0429_20120115_015313_raw.all.mb56.gz 16.77MB Simrad multibeam vendor format
0430_20120115_025313_raw.all.mb56.gz 15.36MB Simrad multibeam vendor format
0431_20120115_035313_raw.all.mb56.gz 15.80MB Simrad multibeam vendor format
0432_20120115_045313_raw.all.mb56.gz 15.41MB Simrad multibeam vendor format
0433_20120115_055313_raw.all.mb56.gz 15.18MB Simrad multibeam vendor format
0434_20120115_065313_raw.all.mb56.gz 15.36MB Simrad multibeam vendor format
0435_20120115_075313_raw.all.mb56.gz 16.02MB Simrad multibeam vendor format
0436_20120115_085313_raw.all.mb56.gz 16.11MB Simrad multibeam vendor format
0437_20120115_095313_raw.all.mb56.gz 16.59MB Simrad multibeam vendor format
0438_20120115_105313_raw.all.mb56.gz 16.60MB Simrad multibeam vendor format
0439_20120115_115313_raw.all.mb56.gz 16.95MB Simrad multibeam vendor format
0440_20120115_125313_raw.all.mb56.gz 16.91MB Simrad multibeam vendor format
0441_20120115_135314_raw.all.mb56.gz 16.59MB Simrad multibeam vendor format
0442_20120115_145314_raw.all.mb56.gz 16.89MB Simrad multibeam vendor format
0443_20120115_155314_raw.all.mb56.gz 17.03MB Simrad multibeam vendor format
0444_20120115_165314_raw.all.mb56.gz 16.68MB Simrad multibeam vendor format
0445_20120115_175314_raw.all.mb56.gz 16.94MB Simrad multibeam vendor format
0446_20120115_185314_raw.all.mb56.gz 16.68MB Simrad multibeam vendor format
0447_20120115_195314_raw.all.mb56.gz 16.77MB Simrad multibeam vendor format
0448_20120115_205314_raw.all.mb56.gz 15.20MB Simrad multibeam vendor format
0449_20120115_215314_raw.all.mb56.gz 15.33MB Simrad multibeam vendor format
0450_20120115_225314_raw.all.mb56.gz 14.68MB Simrad multibeam vendor format
0451_20120115_235314_raw.all.mb56.gz 14.85MB Simrad multibeam vendor format
0452_20120116_005314_raw.all.mb56.gz 16.23MB Simrad multibeam vendor format
0453_20120116_015314_raw.all.mb56.gz 16.53MB Simrad multibeam vendor format
0454_20120116_025314_raw.all.mb56.gz 16.55MB Simrad multibeam vendor format
0455_20120116_035314_raw.all.mb56.gz 15.95MB Simrad multibeam vendor format
0456_20120116_045314_raw.all.mb56.gz 16.09MB Simrad multibeam vendor format
0457_20120116_055314_raw.all.mb56.gz 15.47MB Simrad multibeam vendor format
0458_20120116_065314_raw.all.mb56.gz 16.62MB Simrad multibeam vendor format
0459_20120116_075314_raw.all.mb56.gz 17.18MB Simrad multibeam vendor format
0460_20120116_085314_raw.all.mb56.gz 16.30MB Simrad multibeam vendor format
0461_20120116_095314_raw.all.mb56.gz 17.11MB Simrad multibeam vendor format
0462_20120116_105314_raw.all.mb56.gz 17.38MB Simrad multibeam vendor format
0463_20120116_115314_raw.all.mb56.gz 17.78MB Simrad multibeam vendor format
0464_20120116_125314_raw.all.mb56.gz 17.89MB Simrad multibeam vendor format
0465_20120116_135314_raw.all.mb56.gz 17.72MB Simrad multibeam vendor format
0466_20120116_145314_raw.all.mb56.gz 17.37MB Simrad multibeam vendor format
0467_20120116_155314_raw.all.mb56.gz 17.34MB Simrad multibeam vendor format
0468_20120116_165314_raw.all.mb56.gz 17.15MB Simrad multibeam vendor format
0469_20120116_175314_raw.all.mb56.gz 17.29MB Simrad multibeam vendor format
0470_20120116_185314_raw.all.mb56.gz 17.33MB Simrad multibeam vendor format
0471_20120116_195314_raw.all.mb56.gz 17.39MB Simrad multibeam vendor format
0472_20120116_205314_raw.all.mb56.gz 17.55MB Simrad multibeam vendor format
0473_20120116_215314_raw.all.mb56.gz 17.57MB Simrad multibeam vendor format
0474_20120116_225314_raw.all.mb56.gz 18.16MB Simrad multibeam vendor format
0475_20120116_235314_raw.all.mb56.gz 18.70MB Simrad multibeam vendor format
0476_20120117_005314_raw.all.mb56.gz 18.14MB Simrad multibeam vendor format
0477_20120117_015314_raw.all.mb56.gz 17.93MB Simrad multibeam vendor format
0478_20120117_025314_raw.all.mb56.gz 18.77MB Simrad multibeam vendor format
0479_20120117_035314_raw.all.mb56.gz 19.40MB Simrad multibeam vendor format
0480_20120117_045314_raw.all.mb56.gz 20.77MB Simrad multibeam vendor format
0481_20120117_055314_raw.all.mb56.gz 20.79MB Simrad multibeam vendor format
0482_20120117_065314_raw.all.mb56.gz 19.59MB Simrad multibeam vendor format
0483_20120117_075314_raw.all.mb56.gz 18.98MB Simrad multibeam vendor format
0484_20120117_085314_raw.all.mb56.gz 18.68MB Simrad multibeam vendor format
0485_20120117_095314_raw.all.mb56.gz 18.85MB Simrad multibeam vendor format
0486_20120117_105314_raw.all.mb56.gz 14.35MB Simrad multibeam vendor format
0487_20120117_115314_raw.all.mb56.gz 13.51MB Simrad multibeam vendor format
0488_20120117_125314_raw.all.mb56.gz 15.40MB Simrad multibeam vendor format
0489_20120117_135314_raw.all.mb56.gz 19.63MB Simrad multibeam vendor format
0490_20120117_145314_raw.all.mb56.gz 19.79MB Simrad multibeam vendor format
0491_20120117_155314_raw.all.mb56.gz 20.02MB Simrad multibeam vendor format
0492_20120117_165314_raw.all.mb56.gz 20.22MB Simrad multibeam vendor format
0493_20120117_175314_raw.all.mb56.gz 19.75MB Simrad multibeam vendor format
0494_20120117_185314_raw.all.mb56.gz 18.50MB Simrad multibeam vendor format
0495_20120117_195314_raw.all.mb56.gz 18.34MB Simrad multibeam vendor format
0496_20120117_205314_raw.all.mb56.gz 17.57MB Simrad multibeam vendor format
0497_20120117_215314_raw.all.mb56.gz 17.08MB Simrad multibeam vendor format
0498_20120117_225314_raw.all.mb56.gz 17.05MB Simrad multibeam vendor format
0499_20120117_235314_raw.all.mb56.gz 17.12MB Simrad multibeam vendor format
0500_20120118_005314_raw.all.mb56.gz 16.95MB Simrad multibeam vendor format
0501_20120118_015314_raw.all.mb56.gz 17.07MB Simrad multibeam vendor format
0502_20120118_025314_raw.all.mb56.gz 17.21MB Simrad multibeam vendor format
0503_20120118_035314_raw.all.mb56.gz 16.97MB Simrad multibeam vendor format
0504_20120118_045314_raw.all.mb56.gz 17.09MB Simrad multibeam vendor format
0505_20120118_055314_raw.all.mb56.gz 17.08MB Simrad multibeam vendor format
0506_20120118_065314_raw.all.mb56.gz 17.14MB Simrad multibeam vendor format
0507_20120118_075314_raw.all.mb56.gz 16.85MB Simrad multibeam vendor format
0508_20120118_085314_raw.all.mb56.gz 16.76MB Simrad multibeam vendor format
0509_20120118_095314_raw.all.mb56.gz 16.64MB Simrad multibeam vendor format
0510_20120118_105314_raw.all.mb56.gz 16.81MB Simrad multibeam vendor format
0511_20120118_115314_raw.all.mb56.gz 16.58MB Simrad multibeam vendor format
0512_20120118_125314_raw.all.mb56.gz 16.57MB Simrad multibeam vendor format
0513_20120118_135314_raw.all.mb56.gz 16.99MB Simrad multibeam vendor format
0514_20120118_145314_raw.all.mb56.gz 16.79MB Simrad multibeam vendor format
0515_20120118_155314_raw.all.mb56.gz 16.94MB Simrad multibeam vendor format
0516_20120118_165314_raw.all.mb56.gz 15.99MB Simrad multibeam vendor format
0517_20120118_175314_raw.all.mb56.gz 15.04MB Simrad multibeam vendor format
0518_20120118_185314_raw.all.mb56.gz 14.96MB Simrad multibeam vendor format
0519_20120118_195314_raw.all.mb56.gz 14.94MB Simrad multibeam vendor format
0520_20120118_205314_raw.all.mb56.gz 14.78MB Simrad multibeam vendor format
0521_20120118_215314_raw.all.mb56.gz 17.07MB Simrad multibeam vendor format
0522_20120118_225314_raw.all.mb56.gz 18.57MB Simrad multibeam vendor format
0523_20120118_235314_raw.all.mb56.gz 18.75MB Simrad multibeam vendor format
0524_20120119_005314_raw.all.mb56.gz 18.32MB Simrad multibeam vendor format
0525_20120119_015314_raw.all.mb56.gz 19.72MB Simrad multibeam vendor format
0526_20120119_025314_raw.all.mb56.gz 19.82MB Simrad multibeam vendor format
0527_20120119_035314_raw.all.mb56.gz 20.16MB Simrad multibeam vendor format
0528_20120119_045314_raw.all.mb56.gz 20.19MB Simrad multibeam vendor format
0529_20120119_055314_raw.all.mb56.gz 19.48MB Simrad multibeam vendor format
0530_20120119_065315_raw.all.mb56.gz 19.13MB Simrad multibeam vendor format
0531_20120119_075314_raw.all.mb56.gz 20.20MB Simrad multibeam vendor format
0532_20120119_085314_raw.all.mb56.gz 18.82MB Simrad multibeam vendor format
0533_20120119_095314_raw.all.mb56.gz 15.12MB Simrad multibeam vendor format
0534_20120119_105314_raw.all.mb56.gz 17.35MB Simrad multibeam vendor format
0535_20120119_115314_raw.all.mb56.gz 17.76MB Simrad multibeam vendor format
0536_20120119_125314_raw.all.mb56.gz 16.00MB Simrad multibeam vendor format
0537_20120119_135314_raw.all.mb56.gz 17.67MB Simrad multibeam vendor format
0538_20120119_145314_raw.all.mb56.gz 17.77MB Simrad multibeam vendor format
0539_20120119_155314_raw.all.mb56.gz 18.03MB Simrad multibeam vendor format
0540_20120119_165314_raw.all.mb56.gz 23.03MB Simrad multibeam vendor format
0541_20120119_175314_raw.all.mb56.gz 33.30MB Simrad multibeam vendor format
0542_20120119_185314_raw.all.mb56.gz 33.35MB Simrad multibeam vendor format
0543_20120119_195314_raw.all.mb56.gz 28.31MB Simrad multibeam vendor format
0544_20120119_205314_raw.all.mb56.gz 13.88MB Simrad multibeam vendor format
0545_20120119_213104_raw.all.mb56.gz 4.44MB Simrad multibeam vendor format
0546_20120119_214445_raw.all.mb56.gz 4.76MB Simrad multibeam vendor format
0547_20120119_215941_raw.all.mb56.gz 17.85MB Simrad multibeam vendor format
0548_20120119_225941_raw.all.mb56.gz 17.05MB Simrad multibeam vendor format
0549_20120119_235941_raw.all.mb56.gz 19.99MB Simrad multibeam vendor format
0550_20120120_005941_raw.all.mb56.gz 26.79MB Simrad multibeam vendor format
0551_20120120_015941_raw.all.mb56.gz 22.87MB Simrad multibeam vendor format
0552_20120120_025941_raw.all.mb56.gz 21.15MB Simrad multibeam vendor format
0553_20120120_035941_raw.all.mb56.gz 20.45MB Simrad multibeam vendor format
0554_20120120_045941_raw.all.mb56.gz 21.53MB Simrad multibeam vendor format
0555_20120120_055941_raw.all.mb56.gz 22.06MB Simrad multibeam vendor format
0556_20120120_065941_raw.all.mb56.gz 21.57MB Simrad multibeam vendor format
0557_20120120_075941_raw.all.mb56.gz 25.24MB Simrad multibeam vendor format
0558_20120120_085941_raw.all.mb56.gz 22.34MB Simrad multibeam vendor format
0559_20120120_095941_raw.all.mb56.gz 18.01MB Simrad multibeam vendor format
0560_20120120_105941_raw.all.mb56.gz 17.25MB Simrad multibeam vendor format
0561_20120120_115941_raw.all.mb56.gz 17.42MB Simrad multibeam vendor format
0562_20120120_125941_raw.all.mb56.gz 17.60MB Simrad multibeam vendor format
0563_20120120_135941_raw.all.mb56.gz 17.60MB Simrad multibeam vendor format
0564_20120120_145941_raw.all.mb56.gz 18.29MB Simrad multibeam vendor format
0565_20120120_155941_raw.all.mb56.gz 21.15MB Simrad multibeam vendor format
0566_20120120_165941_raw.all.mb56.gz 29.94MB Simrad multibeam vendor format
0567_20120120_175941_raw.all.mb56.gz 30.10MB Simrad multibeam vendor format
0568_20120120_185941_raw.all.mb56.gz 28.33MB Simrad multibeam vendor format
0569_20120120_195941_raw.all.mb56.gz 6.97MB Simrad multibeam vendor format
0570_20120120_210725_raw.all.mb56.gz 4.82MB Simrad multibeam vendor format
0571_20120120_211931_raw.all.mb56.gz 22.94MB Simrad multibeam vendor format
0572_20120120_221931_raw.all.mb56.gz 23.38MB Simrad multibeam vendor format
0573_20120120_231931_raw.all.mb56.gz 23.45MB Simrad multibeam vendor format
0574_20120121_001931_raw.all.mb56.gz 23.63MB Simrad multibeam vendor format
0575_20120121_011931_raw.all.mb56.gz 10.68MB Simrad multibeam vendor format
0576_20120121_032434_raw.all.mb56.gz 24.35MB Simrad multibeam vendor format
0577_20120121_042434_raw.all.mb56.gz 23.04MB Simrad multibeam vendor format
0578_20120121_052434_raw.all.mb56.gz 21.48MB Simrad multibeam vendor format
0579_20120121_062434_raw.all.mb56.gz 21.65MB Simrad multibeam vendor format
0580_20120121_072434_raw.all.mb56.gz 8.61MB Simrad multibeam vendor format
0581_20120121_111955_raw.all.mb56.gz 23.09MB Simrad multibeam vendor format
0582_20120121_121955_raw.all.mb56.gz 23.33MB Simrad multibeam vendor format
0583_20120121_131955_raw.all.mb56.gz 23.44MB Simrad multibeam vendor format
0584_20120121_141955_raw.all.mb56.gz 23.52MB Simrad multibeam vendor format
0585_20120121_151955_raw.all.mb56.gz 24.08MB Simrad multibeam vendor format
0586_20120121_161955_raw.all.mb56.gz 26.17MB Simrad multibeam vendor format
0587_20120121_171955_raw.all.mb56.gz 29.44MB Simrad multibeam vendor format
0588_20120121_181956_raw.all.mb56.gz 20.97MB Simrad multibeam vendor format
0589_20120121_191956_raw.all.mb56.gz 18.79MB Simrad multibeam vendor format
0590_20120121_201955_raw.all.mb56.gz 17.70MB Simrad multibeam vendor format
0591_20120121_211955_raw.all.mb56.gz 18.19MB Simrad multibeam vendor format
0592_20120121_221956_raw.all.mb56.gz 14.28MB Simrad multibeam vendor format
0593_20120121_230659_raw.all.mb56.gz 18.02MB Simrad multibeam vendor format
0594_20120122_000659_raw.all.mb56.gz 17.77MB Simrad multibeam vendor format
0595_20120122_010659_raw.all.mb56.gz 17.71MB Simrad multibeam vendor format
0596_20120122_020659_raw.all.mb56.gz 18.00MB Simrad multibeam vendor format
0597_20120122_030659_raw.all.mb56.gz 18.42MB Simrad multibeam vendor format
0598_20120122_040659_raw.all.mb56.gz 26.16MB Simrad multibeam vendor format
0599_20120122_050659_raw.all.mb56.gz 30.01MB Simrad multibeam vendor format
0600_20120122_060659_raw.all.mb56.gz 28.36MB Simrad multibeam vendor format
0601_20120122_070659_raw.all.mb56.gz 25.20MB Simrad multibeam vendor format
0602_20120122_080659_raw.all.mb56.gz 23.98MB Simrad multibeam vendor format
0603_20120122_090659_raw.all.mb56.gz 23.82MB Simrad multibeam vendor format
0604_20120122_100659_raw.all.mb56.gz 23.29MB Simrad multibeam vendor format
0605_20120122_110659_raw.all.mb56.gz 22.85MB Simrad multibeam vendor format
0606_20120122_120659_raw.all.mb56.gz 23.03MB Simrad multibeam vendor format
0607_20120122_130659_raw.all.mb56.gz 23.03MB Simrad multibeam vendor format
0608_20120122_140659_raw.all.mb56.gz 23.38MB Simrad multibeam vendor format
0609_20120122_150659_raw.all.mb56.gz 24.00MB Simrad multibeam vendor format
0610_20120122_160659_raw.all.mb56.gz 26.95MB Simrad multibeam vendor format
0611_20120122_170659_raw.all.mb56.gz 29.21MB Simrad multibeam vendor format
0612_20120122_180659_raw.all.mb56.gz 23.54MB Simrad multibeam vendor format
0613_20120122_190659_raw.all.mb56.gz 19.13MB Simrad multibeam vendor format
0614_20120122_200659_raw.all.mb56.gz 18.95MB Simrad multibeam vendor format
0615_20120122_210659_raw.all.mb56.gz 18.52MB Simrad multibeam vendor format
0616_20120122_220659_raw.all.mb56.gz 18.40MB Simrad multibeam vendor format
0617_20120122_230659_raw.all.mb56.gz 12.31MB Simrad multibeam vendor format
0618_20120122_234819_raw.all.mb56.gz 413.1KB Simrad multibeam vendor format
0619_20120122_235729_raw.all.mb56.gz 18.46MB Simrad multibeam vendor format
0620_20120123_005729_raw.all.mb56.gz 19.29MB Simrad multibeam vendor format
0621_20120123_015729_raw.all.mb56.gz 18.51MB Simrad multibeam vendor format
0622_20120123_025729_raw.all.mb56.gz 18.48MB Simrad multibeam vendor format
0623_20120123_035729_raw.all.mb56.gz 17.34MB Simrad multibeam vendor format
0624_20120123_045729_raw.all.mb56.gz 17.70MB Simrad multibeam vendor format
0625_20120123_055729_raw.all.mb56.gz 17.50MB Simrad multibeam vendor format
0626_20120123_065729_raw.all.mb56.gz 17.70MB Simrad multibeam vendor format
0627_20120123_075729_raw.all.mb56.gz 17.95MB Simrad multibeam vendor format
0628_20120123_085729_raw.all.mb56.gz 18.02MB Simrad multibeam vendor format
0629_20120123_095729_raw.all.mb56.gz 17.98MB Simrad multibeam vendor format
0630_20120123_105729_raw.all.mb56.gz 18.07MB Simrad multibeam vendor format
0631_20120123_115729_raw.all.mb56.gz 18.70MB Simrad multibeam vendor format
0632_20120123_125729_raw.all.mb56.gz 18.81MB Simrad multibeam vendor format
0633_20120123_135729_raw.all.mb56.gz 18.72MB Simrad multibeam vendor format
0634_20120123_145729_raw.all.mb56.gz 18.63MB Simrad multibeam vendor format
0635_20120123_155729_raw.all.mb56.gz 18.42MB Simrad multibeam vendor format
0636_20120123_165729_raw.all.mb56.gz 18.36MB Simrad multibeam vendor format
0637_20120123_175729_raw.all.mb56.gz 18.60MB Simrad multibeam vendor format
0638_20120123_185729_raw.all.mb56.gz 18.98MB Simrad multibeam vendor format
0639_20120123_195729_raw.all.mb56.gz 18.56MB Simrad multibeam vendor format
0640_20120123_205729_raw.all.mb56.gz 17.32MB Simrad multibeam vendor format
0641_20120123_215729_raw.all.mb56.gz 17.22MB Simrad multibeam vendor format
0642_20120123_225729_raw.all.mb56.gz 16.65MB Simrad multibeam vendor format
0643_20120123_235729_raw.all.mb56.gz 16.83MB Simrad multibeam vendor format
0644_20120124_005729_raw.all.mb56.gz 17.05MB Simrad multibeam vendor format
0645_20120124_015729_raw.all.mb56.gz 16.10MB Simrad multibeam vendor format
0646_20120124_025730_raw.all.mb56.gz 17.23MB Simrad multibeam vendor format
0647_20120124_035729_raw.all.mb56.gz 17.67MB Simrad multibeam vendor format
0648_20120124_045729_raw.all.mb56.gz 17.56MB Simrad multibeam vendor format
0649_20120124_055730_raw.all.mb56.gz 14.76MB Simrad multibeam vendor format
0650_20120124_065730_raw.all.mb56.gz 19.09MB Simrad multibeam vendor format
0651_20120124_075730_raw.all.mb56.gz 17.40MB Simrad multibeam vendor format
0652_20120124_085730_raw.all.mb56.gz 18.38MB Simrad multibeam vendor format
0653_20120124_095730_raw.all.mb56.gz 19.25MB Simrad multibeam vendor format
0654_20120124_105730_raw.all.mb56.gz 18.86MB Simrad multibeam vendor format
0655_20120124_115730_raw.all.mb56.gz 17.96MB Simrad multibeam vendor format
0656_20120124_125730_raw.all.mb56.gz 18.81MB Simrad multibeam vendor format
0657_20120124_135730_raw.all.mb56.gz 19.48MB Simrad multibeam vendor format
0658_20120124_145730_raw.all.mb56.gz 19.73MB Simrad multibeam vendor format
0659_20120124_155730_raw.all.mb56.gz 19.87MB Simrad multibeam vendor format
0660_20120124_165730_raw.all.mb56.gz 19.90MB Simrad multibeam vendor format
0661_20120124_175730_raw.all.mb56.gz 19.26MB Simrad multibeam vendor format
0662_20120124_185730_raw.all.mb56.gz 12.55MB Simrad multibeam vendor format
0663_20120124_195730_raw.all.mb56.gz 19.19MB Simrad multibeam vendor format
0664_20120124_205730_raw.all.mb56.gz 15.77MB Simrad multibeam vendor format
0665_20120124_215209_raw.all.mb56.gz 7.87MB Simrad multibeam vendor format
0666_20120124_222135_raw.all.mb56.gz 18.87MB Simrad multibeam vendor format
0667_20120124_232135_raw.all.mb56.gz 20.54MB Simrad multibeam vendor format
0668_20120125_002135_raw.all.mb56.gz 20.43MB Simrad multibeam vendor format
0669_20120125_012135_raw.all.mb56.gz 20.41MB Simrad multibeam vendor format
0670_20120125_022135_raw.all.mb56.gz 367.3KB Simrad multibeam vendor format
0671_20120125_022238_raw.all.mb56.gz 17.88MB Simrad multibeam vendor format
0672_20120125_032238_raw.all.mb56.gz 16.49MB Simrad multibeam vendor format
0673_20120125_042238_raw.all.mb56.gz 19.64MB Simrad multibeam vendor format
0674_20120125_052238_raw.all.mb56.gz 19.90MB Simrad multibeam vendor format
0675_20120125_062238_raw.all.mb56.gz 20.70MB Simrad multibeam vendor format
0676_20120125_072238_raw.all.mb56.gz 18.80MB Simrad multibeam vendor format
0677_20120125_082238_raw.all.mb56.gz 20.14MB Simrad multibeam vendor format
0678_20120125_092238_raw.all.mb56.gz 20.58MB Simrad multibeam vendor format
0679_20120125_102238_raw.all.mb56.gz 20.46MB Simrad multibeam vendor format
0680_20120125_112238_raw.all.mb56.gz 20.68MB Simrad multibeam vendor format
0681_20120125_122238_raw.all.mb56.gz 20.70MB Simrad multibeam vendor format
0682_20120125_132238_raw.all.mb56.gz 19.48MB Simrad multibeam vendor format
0683_20120125_142238_raw.all.mb56.gz 20.66MB Simrad multibeam vendor format
0684_20120125_152238_raw.all.mb56.gz 4.59MB Simrad multibeam vendor format
0684_20120125_153719_raw.all.mb56.gz 19.41MB Simrad multibeam vendor format
0685_20120125_163719_raw.all.mb56.gz 20.22MB Simrad multibeam vendor format
0686_20120125_173719_raw.all.mb56.gz 20.17MB Simrad multibeam vendor format
0687_20120125_183719_raw.all.mb56.gz 19.93MB Simrad multibeam vendor format
0688_20120125_193719_raw.all.mb56.gz 20.55MB Simrad multibeam vendor format
0689_20120125_203719_raw.all.mb56.gz 19.40MB Simrad multibeam vendor format
0690_20120125_213719_raw.all.mb56.gz 20.42MB Simrad multibeam vendor format
0691_20120125_223719_raw.all.mb56.gz 19.16MB Simrad multibeam vendor format
0692_20120125_233719_raw.all.mb56.gz 20.48MB Simrad multibeam vendor format
0693_20120126_003719_raw.all.mb56.gz 19.90MB Simrad multibeam vendor format
0694_20120126_013719_raw.all.mb56.gz 19.58MB Simrad multibeam vendor format
0695_20120126_023719_raw.all.mb56.gz 18.94MB Simrad multibeam vendor format
0696_20120126_033719_raw.all.mb56.gz 18.75MB Simrad multibeam vendor format
0697_20120126_043719_raw.all.mb56.gz 19.53MB Simrad multibeam vendor format
0698_20120126_053719_raw.all.mb56.gz 21.19MB Simrad multibeam vendor format
0699_20120126_063719_raw.all.mb56.gz 20.85MB Simrad multibeam vendor format
0700_20120126_073719_raw.all.mb56.gz 19.87MB Simrad multibeam vendor format
0701_20120126_083719_raw.all.mb56.gz 21.29MB Simrad multibeam vendor format
0702_20120126_093720_raw.all.mb56.gz 32.35MB Simrad multibeam vendor format
0703_20120126_103720_raw.all.mb56.gz 39.93MB Simrad multibeam vendor format
0704_20120126_113720_raw.all.mb56.gz 28.76MB Simrad multibeam vendor format
0705_20120126_123720_raw.all.mb56.gz 30.06MB Simrad multibeam vendor format
0706_20120126_133720_raw.all.mb56.gz 29.98MB Simrad multibeam vendor format
0707_20120126_143720_raw.all.mb56.gz 26.06MB Simrad multibeam vendor format
0708_20120126_153720_raw.all.mb56.gz 22.41MB Simrad multibeam vendor format
0709_20120126_163720_raw.all.mb56.gz 23.48MB Simrad multibeam vendor format
0710_20120126_173720_raw.all.mb56.gz 23.24MB Simrad multibeam vendor format
0711_20120126_183720_raw.all.mb56.gz 25.92MB Simrad multibeam vendor format
0712_20120126_193720_raw.all.mb56.gz 27.92MB Simrad multibeam vendor format
0713_20120126_203720_raw.all.mb56.gz 32.31MB Simrad multibeam vendor format
0714_20120126_213720_raw.all.mb56.gz 17.78MB Simrad multibeam vendor format
0715_20120126_220930_raw.all.mb56.gz 29.07MB Simrad multibeam vendor format
0716_20120126_230930_raw.all.mb56.gz 29.15MB Simrad multibeam vendor format
0717_20120127_000930_raw.all.mb56.gz 26.14MB Simrad multibeam vendor format
0718_20120127_010930_raw.all.mb56.gz 23.99MB Simrad multibeam vendor format
0719_20120127_020930_raw.all.mb56.gz 21.59MB Simrad multibeam vendor format
0720_20120127_030930_raw.all.mb56.gz 20.01MB Simrad multibeam vendor format
0721_20120127_040930_raw.all.mb56.gz 20.46MB Simrad multibeam vendor format
0722_20120127_050930_raw.all.mb56.gz 21.16MB Simrad multibeam vendor format
0723_20120127_060930_raw.all.mb56.gz 21.54MB Simrad multibeam vendor format
0724_20120127_070930_raw.all.mb56.gz 21.43MB Simrad multibeam vendor format
0725_20120127_080930_raw.all.mb56.gz 21.49MB Simrad multibeam vendor format
0726_20120127_090930_raw.all.mb56.gz 22.26MB Simrad multibeam vendor format
0727_20120127_100930_raw.all.mb56.gz 23.30MB Simrad multibeam vendor format
0728_20120127_110930_raw.all.mb56.gz 23.41MB Simrad multibeam vendor format
0729_20120127_120930_raw.all.mb56.gz 19.24MB Simrad multibeam vendor format
0730_20120127_130930_raw.all.mb56.gz 21.61MB Simrad multibeam vendor format
0731_20120127_140930_raw.all.mb56.gz 18.84MB Simrad multibeam vendor format
0732_20120127_150930_raw.all.mb56.gz 17.48MB Simrad multibeam vendor format
0733_20120127_160930_raw.all.mb56.gz 17.51MB Simrad multibeam vendor format
0734_20120127_170930_raw.all.mb56.gz 17.70MB Simrad multibeam vendor format
0735_20120127_180930_raw.all.mb56.gz 18.39MB Simrad multibeam vendor format
0736_20120127_190930_raw.all.mb56.gz 20.80MB Simrad multibeam vendor format
0737_20120127_200930_raw.all.mb56.gz 23.69MB Simrad multibeam vendor format
0738_20120127_210930_raw.all.mb56.gz 23.90MB Simrad multibeam vendor format
0739_20120127_220930_raw.all.mb56.gz 23.14MB Simrad multibeam vendor format
0740_20120127_230930_raw.all.mb56.gz 22.46MB Simrad multibeam vendor format
0741_20120128_000930_raw.all.mb56.gz 21.39MB Simrad multibeam vendor format
0742_20120128_010930_raw.all.mb56.gz 20.65MB Simrad multibeam vendor format
0743_20120128_020930_raw.all.mb56.gz 20.48MB Simrad multibeam vendor format
0744_20120128_030930_raw.all.mb56.gz 11.30MB Simrad multibeam vendor format
0745_20120128_034412_raw.all.mb56.gz 18.88MB Simrad multibeam vendor format
0746_20120128_044412_raw.all.mb56.gz 19.24MB Simrad multibeam vendor format
0747_20120128_054412_raw.all.mb56.gz 20.81MB Simrad multibeam vendor format
0748_20120128_064412_raw.all.mb56.gz 23.84MB Simrad multibeam vendor format
0749_20120128_074412_raw.all.mb56.gz 26.44MB Simrad multibeam vendor format
0750_20120128_084412_raw.all.mb56.gz 23.44MB Simrad multibeam vendor format
0751_20120128_094412_raw.all.mb56.gz 26.03MB Simrad multibeam vendor format
0752_20120128_104412_raw.all.mb56.gz 27.58MB Simrad multibeam vendor format
0753_20120128_114412_raw.all.mb56.gz 27.11MB Simrad multibeam vendor format
0754_20120128_124412_raw.all.mb56.gz 22.12MB Simrad multibeam vendor format
0755_20120128_134412_raw.all.mb56.gz 23.26MB Simrad multibeam vendor format
0756_20120128_144412_raw.all.mb56.gz 23.69MB Simrad multibeam vendor format
0757_20120128_154412_raw.all.mb56.gz 18.65MB Simrad multibeam vendor format
0758_20120128_164412_raw.all.mb56.gz 22.13MB Simrad multibeam vendor format
0759_20120128_174412_raw.all.mb56.gz 18.95MB Simrad multibeam vendor format
0760_20120128_184412_raw.all.mb56.gz 18.79MB Simrad multibeam vendor format
0761_20120128_194412_raw.all.mb56.gz 20.90MB Simrad multibeam vendor format
0762_20120128_204412_raw.all.mb56.gz 20.85MB Simrad multibeam vendor format
0763_20120128_214412_raw.all.mb56.gz 19.27MB Simrad multibeam vendor format
0764_20120128_224412_raw.all.mb56.gz 20.45MB Simrad multibeam vendor format
0765_20120128_234412_raw.all.mb56.gz 22.61MB Simrad multibeam vendor format
0766_20120129_004412_raw.all.mb56.gz 20.76MB Simrad multibeam vendor format
0767_20120129_014412_raw.all.mb56.gz 23.84MB Simrad multibeam vendor format
0768_20120129_024412_raw.all.mb56.gz 21.89MB Simrad multibeam vendor format
0769_20120129_034412_raw.all.mb56.gz 22.52MB Simrad multibeam vendor format
0770_20120129_044413_raw.all.mb56.gz 24.15MB Simrad multibeam vendor format
0771_20120129_054413_raw.all.mb56.gz 24.02MB Simrad multibeam vendor format
0772_20120129_064412_raw.all.mb56.gz 21.66MB Simrad multibeam vendor format
0773_20120129_074413_raw.all.mb56.gz 20.63MB Simrad multibeam vendor format
0774_20120129_084412_raw.all.mb56.gz 20.75MB Simrad multibeam vendor format
0775_20120129_094413_raw.all.mb56.gz 22.03MB Simrad multibeam vendor format
0776_20120129_104413_raw.all.mb56.gz 26.34MB Simrad multibeam vendor format
0777_20120129_114413_raw.all.mb56.gz 26.53MB Simrad multibeam vendor format
0778_20120129_124413_raw.all.mb56.gz 23.13MB Simrad multibeam vendor format
0779_20120129_134413_raw.all.mb56.gz 21.12MB Simrad multibeam vendor format
0780_20120129_144413_raw.all.mb56.gz 21.47MB Simrad multibeam vendor format
0781_20120129_154413_raw.all.mb56.gz 18.74MB Simrad multibeam vendor format
0782_20120129_164413_raw.all.mb56.gz 19.09MB Simrad multibeam vendor format
0783_20120129_174413_raw.all.mb56.gz 17.45MB Simrad multibeam vendor format
0784_20120129_184413_raw.all.mb56.gz 17.54MB Simrad multibeam vendor format
0785_20120129_194413_raw.all.mb56.gz 18.95MB Simrad multibeam vendor format
0786_20120129_204413_raw.all.mb56.gz 14.62MB Simrad multibeam vendor format
0787_20120129_213035_raw.all.mb56.gz 17.95MB Simrad multibeam vendor format
0788_20120129_223035_raw.all.mb56.gz 18.10MB Simrad multibeam vendor format
0789_20120129_233035_raw.all.mb56.gz 20.00MB Simrad multibeam vendor format
0790_20120130_003035_raw.all.mb56.gz 19.38MB Simrad multibeam vendor format
0791_20120130_013035_raw.all.mb56.gz 23.79MB Simrad multibeam vendor format
0792_20120130_023035_raw.all.mb56.gz 25.07MB Simrad multibeam vendor format
0793_20120130_033035_raw.all.mb56.gz 24.12MB Simrad multibeam vendor format
0794_20120130_043035_raw.all.mb56.gz 25.89MB Simrad multibeam vendor format
0795_20120130_053035_raw.all.mb56.gz 25.96MB Simrad multibeam vendor format
0796_20120130_063035_raw.all.mb56.gz 25.33MB Simrad multibeam vendor format
0797_20120130_073035_raw.all.mb56.gz 24.61MB Simrad multibeam vendor format
0798_20120130_083035_raw.all.mb56.gz 24.27MB Simrad multibeam vendor format
0799_20120130_093035_raw.all.mb56.gz 24.52MB Simrad multibeam vendor format
0800_20120130_103035_raw.all.mb56.gz 24.30MB Simrad multibeam vendor format
0801_20120130_113035_raw.all.mb56.gz 23.02MB Simrad multibeam vendor format
0802_20120130_123035_raw.all.mb56.gz 23.22MB Simrad multibeam vendor format
0803_20120130_133035_raw.all.mb56.gz 23.02MB Simrad multibeam vendor format
0804_20120130_143035_raw.all.mb56.gz 23.09MB Simrad multibeam vendor format
0805_20120130_153035_raw.all.mb56.gz 23.05MB Simrad multibeam vendor format
0806_20120130_163035_raw.all.mb56.gz 23.21MB Simrad multibeam vendor format
0807_20120130_173035_raw.all.mb56.gz 22.75MB Simrad multibeam vendor format
0808_20120130_183035_raw.all.mb56.gz 21.32MB Simrad multibeam vendor format
0809_20120130_193035_raw.all.mb56.gz 20.38MB Simrad multibeam vendor format
0810_20120130_203035_raw.all.mb56.gz 19.71MB Simrad multibeam vendor format
0811_20120130_213035_raw.all.mb56.gz 19.44MB Simrad multibeam vendor format
0812_20120130_223035_raw.all.mb56.gz 19.56MB Simrad multibeam vendor format
0813_20120130_233035_raw.all.mb56.gz 19.56MB Simrad multibeam vendor format
0814_20120131_003035_raw.all.mb56.gz 19.47MB Simrad multibeam vendor format
0815_20120131_013035_raw.all.mb56.gz 19.69MB Simrad multibeam vendor format
0816_20120131_023035_raw.all.mb56.gz 20.10MB Simrad multibeam vendor format
0817_20120131_033035_raw.all.mb56.gz 20.53MB Simrad multibeam vendor format
0818_20120131_043035_raw.all.mb56.gz 20.84MB Simrad multibeam vendor format
0819_20120131_053035_raw.all.mb56.gz 21.02MB Simrad multibeam vendor format
0820_20120131_063035_raw.all.mb56.gz 20.87MB Simrad multibeam vendor format
0821_20120131_073035_raw.all.mb56.gz 19.91MB Simrad multibeam vendor format
0822_20120131_083035_raw.all.mb56.gz 19.61MB Simrad multibeam vendor format
0823_20120131_093035_raw.all.mb56.gz 18.48MB Simrad multibeam vendor format
0824_20120131_103035_raw.all.mb56.gz 17.97MB Simrad multibeam vendor format
0825_20120131_113035_raw.all.mb56.gz 17.70MB Simrad multibeam vendor format
0826_20120131_123035_raw.all.mb56.gz 17.96MB Simrad multibeam vendor format
0827_20120131_133035_raw.all.mb56.gz 17.98MB Simrad multibeam vendor format
0828_20120131_143035_raw.all.mb56.gz 17.75MB Simrad multibeam vendor format
0829_20120131_153035_raw.all.mb56.gz 17.72MB Simrad multibeam vendor format
0830_20120131_163035_raw.all.mb56.gz 17.38MB Simrad multibeam vendor format
0831_20120131_173035_raw.all.mb56.gz 17.06MB Simrad multibeam vendor format
0832_20120131_183035_raw.all.mb56.gz 17.29MB Simrad multibeam vendor format
0833_20120131_193035_raw.all.mb56.gz 9.98MB Simrad multibeam vendor format
0834_20120131_200530_raw.all.mb56.gz 17.21MB Simrad multibeam vendor format
0835_20120131_210530_raw.all.mb56.gz 17.09MB Simrad multibeam vendor format
0836_20120131_220530_raw.all.mb56.gz 17.04MB Simrad multibeam vendor format
0837_20120131_230530_raw.all.mb56.gz 16.98MB Simrad multibeam vendor format
0838_20120201_000530_raw.all.mb56.gz 17.40MB Simrad multibeam vendor format
0839_20120201_010530_raw.all.mb56.gz 17.15MB Simrad multibeam vendor format
0840_20120201_020530_raw.all.mb56.gz 17.14MB Simrad multibeam vendor format
0841_20120201_030530_raw.all.mb56.gz 17.23MB Simrad multibeam vendor format
0842_20120201_040530_raw.all.mb56.gz 17.08MB Simrad multibeam vendor format
0843_20120201_050530_raw.all.mb56.gz 40.0KB Simrad multibeam vendor format
0844_20120201_050538_raw.all.mb56.gz 107.4KB Simrad multibeam vendor format
0845_20120201_050559_raw.all.mb56.gz 159.4KB Simrad multibeam vendor format
0846_20120201_050630_raw.all.mb56.gz 4.39MB Simrad multibeam vendor format
0847_20120201_052134_raw.all.mb56.gz 17.12MB Simrad multibeam vendor format
0848_20120201_062134_raw.all.mb56.gz 17.26MB Simrad multibeam vendor format
0849_20120201_072134_raw.all.mb56.gz 17.09MB Simrad multibeam vendor format
0850_20120201_082134_raw.all.mb56.gz 17.01MB Simrad multibeam vendor format
0851_20120201_092134_raw.all.mb56.gz 16.94MB Simrad multibeam vendor format
0852_20120201_102134_raw.all.mb56.gz 16.96MB Simrad multibeam vendor format
0853_20120201_112134_raw.all.mb56.gz 16.96MB Simrad multibeam vendor format
0854_20120201_122134_raw.all.mb56.gz 16.89MB Simrad multibeam vendor format
0855_20120201_132134_raw.all.mb56.gz 16.94MB Simrad multibeam vendor format
0856_20120201_142134_raw.all.mb56.gz 16.98MB Simrad multibeam vendor format
0857_20120201_152134_raw.all.mb56.gz 17.00MB Simrad multibeam vendor format
0858_20120201_162134_raw.all.mb56.gz 16.80MB Simrad multibeam vendor format
0859_20120201_172134_raw.all.mb56.gz 17.07MB Simrad multibeam vendor format
0860_20120201_182134_raw.all.mb56.gz 16.90MB Simrad multibeam vendor format
0861_20120201_192134_raw.all.mb56.gz 16.27MB Simrad multibeam vendor format
0862_20120201_202134_raw.all.mb56.gz 15.14MB Simrad multibeam vendor format
0863_20120201_212134_raw.all.mb56.gz 17.68MB Simrad multibeam vendor format
0864_20120201_222134_raw.all.mb56.gz 17.49MB Simrad multibeam vendor format
0865_20120201_231506_raw.all.mb56.gz 18.54MB Simrad multibeam vendor format
0866_20120202_001506_raw.all.mb56.gz 28.70MB Simrad multibeam vendor format
0867_20120202_011506_raw.all.mb56.gz 31.27MB Simrad multibeam vendor format
0868_20120202_021506_raw.all.mb56.gz 30.17MB Simrad multibeam vendor format
0869_20120202_031506_raw.all.mb56.gz 23.88MB Simrad multibeam vendor format
0870_20120202_041506_raw.all.mb56.gz 27.08MB Simrad multibeam vendor format
0871_20120202_051506_raw.all.mb56.gz 18.63MB Simrad multibeam vendor format
0872_20120202_061506_raw.all.mb56.gz 18.72MB Simrad multibeam vendor format
0873_20120202_071506_raw.all.mb56.gz 18.66MB Simrad multibeam vendor format
0874_20120202_081506_raw.all.mb56.gz 10.63MB Simrad multibeam vendor format
0875_20120202_085305_raw.all.mb56.gz 19.74MB Simrad multibeam vendor format
0876_20120202_095306_raw.all.mb56.gz 18.88MB Simrad multibeam vendor format
0877_20120202_105306_raw.all.mb56.gz 18.72MB Simrad multibeam vendor format
0878_20120202_115306_raw.all.mb56.gz 18.43MB Simrad multibeam vendor format
0879_20120202_125306_raw.all.mb56.gz 17.88MB Simrad multibeam vendor format
0880_20120202_135306_raw.all.mb56.gz 16.00MB Simrad multibeam vendor format
0881_20120202_145306_raw.all.mb56.gz 14.82MB Simrad multibeam vendor format
0882_20120202_155306_raw.all.mb56.gz 16.52MB Simrad multibeam vendor format
0883_20120202_165306_raw.all.mb56.gz 17.56MB Simrad multibeam vendor format
0884_20120202_175306_raw.all.mb56.gz 16.92MB Simrad multibeam vendor format
0885_20120202_185306_raw.all.mb56.gz 17.16MB Simrad multibeam vendor format
0886_20120202_195306_raw.all.mb56.gz 17.31MB Simrad multibeam vendor format
0887_20120202_205306_raw.all.mb56.gz 17.52MB Simrad multibeam vendor format
0888_20120202_215306_raw.all.mb56.gz 17.51MB Simrad multibeam vendor format
0889_20120202_225306_raw.all.mb56.gz 17.47MB Simrad multibeam vendor format
0890_20120202_235306_raw.all.mb56.gz 17.32MB Simrad multibeam vendor format
0891_20120203_005306_raw.all.mb56.gz 17.27MB Simrad multibeam vendor format
0892_20120203_015306_raw.all.mb56.gz 17.36MB Simrad multibeam vendor format
0893_20120203_025306_raw.all.mb56.gz 16.96MB Simrad multibeam vendor format
0894_20120203_035306_raw.all.mb56.gz 17.02MB Simrad multibeam vendor format
0895_20120203_045306_raw.all.mb56.gz 17.45MB Simrad multibeam vendor format
0896_20120203_055306_raw.all.mb56.gz 18.07MB Simrad multibeam vendor format
0897_20120203_065306_raw.all.mb56.gz 18.08MB Simrad multibeam vendor format
0898_20120203_075306_raw.all.mb56.gz 17.68MB Simrad multibeam vendor format
0899_20120203_085306_raw.all.mb56.gz 17.80MB Simrad multibeam vendor format
0900_20120203_095306_raw.all.mb56.gz 17.99MB Simrad multibeam vendor format
0901_20120203_105306_raw.all.mb56.gz 18.00MB Simrad multibeam vendor format
0902_20120203_115306_raw.all.mb56.gz 17.88MB Simrad multibeam vendor format
0903_20120203_125306_raw.all.mb56.gz 18.05MB Simrad multibeam vendor format
0904_20120203_135306_raw.all.mb56.gz 18.30MB Simrad multibeam vendor format
0905_20120203_145306_raw.all.mb56.gz 18.55MB Simrad multibeam vendor format
0906_20120203_155306_raw.all.mb56.gz 18.38MB Simrad multibeam vendor format
0907_20120203_165306_raw.all.mb56.gz 18.07MB Simrad multibeam vendor format
0908_20120203_175306_raw.all.mb56.gz 17.95MB Simrad multibeam vendor format
0909_20120203_185306_raw.all.mb56.gz 17.75MB Simrad multibeam vendor format
0910_20120203_195306_raw.all.mb56.gz 2.10MB Simrad multibeam vendor format
0911_20120203_200008_raw.all.mb56.gz 3.67MB Simrad multibeam vendor format
0912_20120203_201216_raw.all.mb56.gz 18.19MB Simrad multibeam vendor format
0913_20120203_211216_raw.all.mb56.gz 9.61MB Simrad multibeam vendor format
0914_20120203_214320_raw.all.mb56.gz 0.64MB Simrad multibeam vendor format
0915_20120203_214522_raw.all.mb56.gz 18.72MB Simrad multibeam vendor format
0916_20120203_224522_raw.all.mb56.gz 17.97MB Simrad multibeam vendor format
0917_20120203_234522_raw.all.mb56.gz 17.94MB Simrad multibeam vendor format
0918_20120204_004522_raw.all.mb56.gz 17.71MB Simrad multibeam vendor format
0919_20120204_014522_raw.all.mb56.gz 18.03MB Simrad multibeam vendor format
0920_20120204_024522_raw.all.mb56.gz 18.03MB Simrad multibeam vendor format
0921_20120204_034522_raw.all.mb56.gz 17.96MB Simrad multibeam vendor format
0922_20120204_044522_raw.all.mb56.gz 18.10MB Simrad multibeam vendor format
0923_20120204_054522_raw.all.mb56.gz 18.05MB Simrad multibeam vendor format
0924_20120204_064522_raw.all.mb56.gz 18.05MB Simrad multibeam vendor format
0925_20120204_074522_raw.all.mb56.gz 17.61MB Simrad multibeam vendor format
0926_20120204_084522_raw.all.mb56.gz 17.44MB Simrad multibeam vendor format
0927_20120204_094522_raw.all.mb56.gz 17.46MB Simrad multibeam vendor format
0928_20120204_104522_raw.all.mb56.gz 18.78MB Simrad multibeam vendor format
0929_20120204_114522_raw.all.mb56.gz 20.34MB Simrad multibeam vendor format
0930_20120204_124522_raw.all.mb56.gz 18.82MB Simrad multibeam vendor format
0931_20120204_134522_raw.all.mb56.gz 18.98MB Simrad multibeam vendor format
0932_20120204_144522_raw.all.mb56.gz 19.18MB Simrad multibeam vendor format
0933_20120204_154522_raw.all.mb56.gz 19.15MB Simrad multibeam vendor format
0934_20120204_164522_raw.all.mb56.gz 19.02MB Simrad multibeam vendor format
0935_20120204_174522_raw.all.mb56.gz 18.54MB Simrad multibeam vendor format
0936_20120204_184522_raw.all.mb56.gz 19.96MB Simrad multibeam vendor format
0937_20120204_194522_raw.all.mb56.gz 20.76MB Simrad multibeam vendor format
0938_20120204_204522_raw.all.mb56.gz 20.84MB Simrad multibeam vendor format
0939_20120204_214522_raw.all.mb56.gz 11.67MB Simrad multibeam vendor format
0940_20120204_221910_raw.all.mb56.gz 18.70MB Simrad multibeam vendor format
0941_20120204_231910_raw.all.mb56.gz 18.13MB Simrad multibeam vendor format
0942_20120205_001910_raw.all.mb56.gz 18.96MB Simrad multibeam vendor format
0943_20120205_011910_raw.all.mb56.gz 18.56MB Simrad multibeam vendor format
0944_20120205_021910_raw.all.mb56.gz 19.35MB Simrad multibeam vendor format
0945_20120205_031910_raw.all.mb56.gz 20.46MB Simrad multibeam vendor format
0946_20120205_041910_raw.all.mb56.gz 18.60MB Simrad multibeam vendor format
0947_20120205_051910_raw.all.mb56.gz 18.39MB Simrad multibeam vendor format
0948_20120205_061910_raw.all.mb56.gz 20.60MB Simrad multibeam vendor format
0949_20120205_071910_raw.all.mb56.gz 21.57MB Simrad multibeam vendor format
0950_20120205_081910_raw.all.mb56.gz 21.68MB Simrad multibeam vendor format
0951_20120205_091910_raw.all.mb56.gz 19.13MB Simrad multibeam vendor format
0952_20120205_101910_raw.all.mb56.gz 16.82MB Simrad multibeam vendor format
0953_20120205_111910_raw.all.mb56.gz 16.73MB Simrad multibeam vendor format
0954_20120205_121910_raw.all.mb56.gz 17.12MB Simrad multibeam vendor format
0955_20120205_131910_raw.all.mb56.gz 18.08MB Simrad multibeam vendor format
0956_20120205_141910_raw.all.mb56.gz 7.40MB Simrad multibeam vendor format

Metadata Files: 3

Files File Size Description
NBP1201_Multibeam.xml NGDC created ISO metadata
NBP1201.xml 19.6KB XML metadata file
mb_bag_info.tar.gz 25.8KB Additional cruise information